Lapse_Rate
6.6 6.5 5.8 5.2 5.2 5.4 5.5 5.7 6.7 7.3 7.8 8.3 7.5 7.7 8.6 8.7 8.2 7.6 5.5 5.1 6.4 6.3 5.6 5.3 4.4 4.1 5.0 5.7 6.4 6.6 6.1 6.5 6.3 6.8 6.1 6.5 6.0 6.1 6.4 6.5 6.9 6.2 4.9
6.2 7.3 6.0 5.2 5.4 4.9 4.8 5.3 5.4 5.6 6.4 7.4 7.5 6.9 8.1 8.6 7.7 7.8 7.3 5.9 6.2 7.4 6.0 5.5 4.4 5.7 5.9 5.1 5.6 6.3 7.1 7.7 6.9 5.8 6.0 5.6 6.0 6.1 5.6 5.7 7.0 6.5 5.6
6.1 6.7 7.0 6.5 5.6 5.0 4.7 5.0 5.2 5.5 5.7 7.0 7.0 6.7 7.1 8.3 7.8 8.0 6.4 5.6 5.9 6.3 6.2 5.8 5.2 5.6 5.1 6.7 6.7 6.8 6.1 6.6 6.9 5.3 6.7 6.6 6.9 6.3 5.8 5.7 5.9 6.0 6.1
6.6 6.5 7.0 6.8 5.9 5.8 5.9 5.8 5.9 6.1 6.2 6.5 6.5 7.7 7.0 7.7 7.7 7.9 5.6 4.5 5.2 5.7 5.0 5.8 6.0 4.0 3.8 5.3 5.5 4.9 5.9 6.3 6.6 6.9 6.8 7.3 7.0 6.7 6.0 5.8 5.8 6.1 5.3
5.9 6.4 6.2 7.0 7.1 6.8 6.6 6.7 6.3 6.2 6.4 6.5 6.6 7.2 7.5 7.6 8.4 7.1 5.2 4.6 3.9 4.1 4.9 5.1 2.5 2.3 2.4 4.0 4.6 3.9 4.6 5.8 6.6 7.4 7.3 6.3 6.5 6.4 5.9 5.6 5.8 5.7 4.8
6.5 6.6 6.8 6.9 7.3 7.4 7.6 7.5 6.9 6.8 6.4 6.6 6.4 7.3 7.4 8.4 6.7 2.4 4.7 4.8 4.1 3.4 3.6 2.7 1.8 2.1 2.1 3.1 3.4 4.0 4.2 5.1 6.1 6.6 6.3 6.8 6.3 6.7 5.9 5.7 5.9 6.1 5.9
7.7 8.3 7.5 7.4 7.5 7.6 7.8 7.8 7.5 7.0 7.0 7.1 7.1 7.0 6.7 7.0 0.5 1.1 2.9 4.9 4.0 3.0 3.3 3.3 3.5 4.4 3.3 3.8 4.2 4.5 5.5 6.1 6.4 5.9 5.5 5.2 5.4 5.9 6.1 5.5 6.1 5.8 5.2
8.2 8.1 8.2 7.8 7.8 7.8 7.8 7.5 7.2 7.6 7.4 7.4 7.2 7.0 6.8 7.0 0.1 0.3 2.2 4.3 3.9 3.0 3.6 4.0 4.1 4.0 3.7 5.6 6.4 6.2 6.0 5.4 5.4 6.9 5.6 5.3 5.1 6.1 5.8 5.5 5.2 4.8 5.4
7.9 8.2 8.1 7.9 7.5 7.7 7.7 7.5 7.6 7.7 7.4 7.4 7.6 7.1 6.3 5.7 -1.5 -0.5 2.5 4.9 3.3 3.0 3.8 4.9 3.6 5.0 2.4 4.5 8.3 7.7 6.0 4.8 3.7 4.2 4.5 4.7 6.4 6.8 5.7 6.1 5.2 5.7 5.9
8.4 8.2 7.9 8.3 7.9 7.8 7.7 7.3 7.2 7.3 7.1 7.8 6.9 7.1 6.5 5.9 -2.7 -1.4 1.6 6.1 3.0 2.9 3.5 4.6 3.5 4.2 0.9 3.4 6.2 7.6 6.7 6.0 6.2 4.9 5.1 5.4 6.7 7.4 7.1 6.6 6.1 6.9 6.2
5.9 6.3 6.8 7.8 7.8 7.9 7.8 7.4 7.0 6.8 7.2 6.6 7.3 6.8 6.0 6.6 0.4 -2.9 -2.0 6.6 3.5 3.6 3.3 3.9 3.2 -0.2 -0.7 0.9 1.6 5.5 5.9 6.5 6.5 6.8 6.7 6.3 7.4 7.1 7.0 7.3 7.1 6.6 6.8
5.1 6.1 7.5 7.4 8.3 8.2 7.2 7.2 7.0 6.7 6.7 6.9 6.6 6.3 6.3 6.0 -0.2 -3.5 -2.9 -1.9 3.1 4.3 3.7 3.7 1.8 -1.4 -1.6 -0.3 1.7 2.6 4.0 4.1 7.9 7.7 7.1 6.1 7.2 6.7 6.6 6.4 6.2 6.1 5.6
5.3 7.0 7.3 7.0 6.7 7.0 6.8 6.5 6.4 7.0 6.6 6.5 6.3 6.7 6.4 6.0 2.2 -2.6 -4.0 -0.8 1.0 4.4 4.3 3.4 -1.4 -2.5 -2.3 -1.3 1.1 1.7 1.0 4.4 6.1 7.6 6.8 5.9 6.4 6.6 6.8 6.3 6.1 5.8 5.8
6.6 5.8 5.9 6.1 5.2 6.9 6.8 6.1 5.8 5.8 6.5 5.5 5.2 6.0 5.0 5.5 2.3 -0.3 -2.5 -0.3 0.2 2.3 -0.1 0.0 -0.4 0.3 1.6 3.0 1.4 1.5 3.9 5.1 7.1 7.2 6.1 6.1 6.1 6.9 7.1 7.0 6.2 6.0 5.9
5.2 7.5 7.6 7.7 8.0 6.8 6.7 4.3 4.1 0.6 0.8 3.7 2.4 2.2 2.1 4.0 3.1 -0.9 -1.6 0.2 2.3 1.4 1.4 1.3 1.9 2.1 3.0 3.7 3.9 4.3 5.2 6.1 7.5 6.7 6.4 6.8 6.0 7.2 6.7 7.6 7.2 6.5 5.2
5.4 6.4 7.0 8.3 7.5 7.7 8.3 6.3 -4.0 -3.7 -5.5 -6.5 -7.2 -5.2 2.1 -1.2 -1.9 -5.1 -4.3 -4.7 -3.6 -2.6 2.0 1.8 2.2 2.8 3.5 4.5 5.5 6.0 6.4 6.8 7.3 7.3 7.0 6.9 6.4 6.7 6.6 6.9 7.4 7.2 6.2
5.0 5.2 5.2 6.3 7.6 8.1 7.9 7.7 7.7 0.1 -2.7 -5.8 -6.6 -6.4 -7.9 -10.4 -7.5 -7.3 -6.6 -6.5 -5.1 -1.3 1.7 2.0 2.7 3.1 4.1 5.7 7.1 7.3 7.2 6.2 7.0 7.1 7.0 7.0 7.3 7.0 6.6 6.8 7.3 7.0 6.7
6.1 3.1 4.4 4.5 5.4 5.5 6.0 8.0 8.7 8.4 6.4 4.5 -3.4 -4.5 -7.3 -8.3 -8.7 -7.2 -6.9 -5.2 -2.3 -0.6 0.9 -0.0 2.1 4.1 3.7 4.9 6.9 6.5 6.5 6.2 6.8 7.3 7.1 7.4 7.4 6.8 7.7 6.9 6.9 7.2 7.0
5.6 4.8 4.0 4.4 4.9 4.1 4.9 5.6 6.4 6.4 6.1 3.6 1.9 0.3 -3.9 -6.1 -5.4 -5.2 -2.5 1.2 0.8 1.4 1.3 0.0 1.1 2.9 3.9 4.8 6.0 6.0 5.9 6.0 5.8 7.0 7.2 7.0 6.9 7.0 7.2 7.5 7.0 5.5 5.8
4.8 2.9 3.0 4.7 3.8 3.5 3.8 3.9 4.4 4.5 5.2 4.8 2.8 2.2 -0.6 -1.3 1.1 0.9 2.1 2.6 2.3 2.6 2.3 1.8 1.8 2.2 3.8 4.2 5.3 5.9 5.4 5.4 5.2 7.0 7.1 7.0 6.9 7.3 7.6 7.8 7.7 7.1 6.9
3.9 3.6 3.2 5.3 4.3 3.6 2.4 2.0 2.1 2.6 3.3 2.8 1.8 -0.0 -3.4 2.5 2.8 2.5 3.0 4.3 4.1 3.4 2.5 3.9 3.2 2.9 3.5 3.9 4.2 5.6 5.3 6.1 5.9 6.6 7.2 7.1 6.9 7.5 7.0 7.1 7.3 7.0 7.7
2.9 2.7 2.7 3.5 3.9 2.9 2.9 2.1 1.1 0.5 0.3 1.0 0.8 0.8 -2.1 2.3 2.3 2.7 2.5 2.5 3.3 3.6 3.3 2.9 3.4 3.1 3.5 4.6 3.6 3.9 6.1 6.6 6.6 6.6 6.8 7.4 7.3 7.6 7.4 7.3 7.2 7.4 7.6
1.3 2.3 1.9 1.5 2.2 2.6 2.1 0.8 -0.3 -0.4 -1.0 -0.9 -0.7 -1.3 -1.3 -1.1 -1.8 -2.1 -1.7 -1.5 -0.9 -0.3 2.6 4.7 4.3 4.6 3.5 4.4 3.4 2.1 3.0 4.4 6.6 6.5 6.9 6.8 7.4 7.7 7.4 7.4 7.4 7.3 7.2
1.0 1.1 0.9 1.0 0.5 0.9 1.1 0.2 -0.6 -1.6 -1.4 -1.9 -2.3 -3.0 -3.3 -3.4 -3.7 -3.6 -3.1 -3.4 -3.1 -3.3 -3.1 -2.1 -1.4 2.5 3.5 2.9 2.0 1.0 -1.0 -2.2 -1.2 5.8 6.9 6.4 6.7 6.3 7.5 7.6 7.5 7.6 7.5
2.4 0.9 0.2 -0.2 -0.5 -0.7 -0.3 -0.4 -0.9 -1.4 -1.9 -2.6 -2.8 -2.9 -3.4 -3.7 -4.0 -4.2 -4.1 -4.1 -4.3 -4.2 -4.4 -4.6 -4.5 -3.9 -3.3 -2.6 -1.7 -2.4 -1.7 2.8 1.6 -0.6 5.9 6.7 6.6 6.4 7.1 7.5 7.6 7.6 7.4
4.4 1.9 0.6 -0.0 -0.0 -0.4 -0.8 -1.5 -0.6 -0.2 -0.8 -1.4 -2.1 -2.4 -2.5 -2.9 -3.1 -3.3 -3.5 -3.5 -3.6 -4.1 -4.2 -4.5 -4.9 -5.2 -4.9 -5.4 -5.6 -3.6 -0.3 0.9 -0.9 -0.4 3.3 3.4 3.6 4.5 6.5 7.0 7.5 7.5 7.7
Wind_Speed
14 13 12 11 11 8 7 5 5 4 3 3 2 3 3 3 4 4 6 5 2 3 4 4 3 4 4 4 3 3 4 3 4 3 4 4 6 6 7 11 11 10 14
14 11 12 11 11 11 9 8 6 6 5 4 4 4 4 3 4 2 2 7 2 3 4 4 5 4 5 6 4 6 4 2 1 6 3 4 6 6 8 6 8 12 12
14 13 11 10 11 10 10 9 7 6 6 6 6 5 4 3 3 2 6 5 3 5 3 4 3 5 4 3 4 4 4 6 2 4 4 3 4 5 8 7 6 9 9
15 14 11 12 12 10 8 8 8 6 6 6 6 5 6 5 5 3 8 6 5 4 4 4 4 7 7 5 6 7 7 6 6 6 5 6 5 6 5 6 6 5 4
12 13 12 11 10 10 9 9 8 8 8 7 6 6 5 5 6 6 9 7 7 6 5 5 8 10 12 13 6 6 7 7 6 6 6 7 4 5 3 3 6 6 5
9 11 10 10 9 9 10 9 9 9 9 8 8 7 7 7 10 14 12 8 8 7 6 8 8 11 10 13 13 13 10 7 9 7 7 5 5 4 3 2 5 3 2
3 4 7 7 8 8 9 10 10 10 9 9 8 8 7 7 10 13 12 9 8 7 7 7 7 8 8 6 7 10 11 12 13 6 7 5 4 3 3 3 5 4 2
5 5 5 6 7 7 8 9 9 8 9 8 8 7 6 6 14 13 11 11 8 8 7 7 5 8 8 6 8 8 7 8 7 7 6 6 4 4 3 4 7 5 4
9 7 7 6 7 8 9 9 8 7 7 8 7 8 8 5 11 13 10 9 9 7 6 6 9 7 8 5 2 6 7 7 12 14 10 9 13 16 11 5 4 5 3
8 9 7 7 7 9 9 8 7 7 8 7 7 7 10 7 12 15 10 7 9 6 6 5 10 8 10 6 2 4 7 6 7 7 2 3 6 11 10 3 2 2 5
10 10 7 8 7 7 6 7 7 7 7 8 5 6 7 7 10 13 14 8 8 7 7 6 5 15 11 8 4 4 4 5 6 6 5 4 5 4 7 9 10 3 1
10 9 7 4 3 5 7 6 7 8 8 6 6 6 7 7 12 16 15 3 10 9 7 6 6 14 12 9 3 3 2 1 3 5 6 5 4 5 5 11 15 13 14
9 5 5 1 1 2 3 4 4 5 4 5 6 7 6 7 6 7 8 6 3 6 6 8 15 16 13 7 4 3 4 4 3 5 7 6 5 6 9 10 16 16 17
8 6 8 6 6 2 2 2 2 1 3 3 5 3 1 5 6 6 6 5 8 6 9 8 12 12 10 7 5 3 4 5 2 7 8 7 6 5 5 6 7 6 7
9 7 4 5 2 2 4 5 4 4 3 2 1 1 2 5 7 11 11 10 9 9 9 6 7 7 6 5 5 5 5 5 2 7 7 8 7 5 5 4 6 7 6
9 7 8 5 4 3 2 4 8 8 8 8 9 5 5 9 5 12 14 13 14 18 8 6 6 7 7 7 7 6 5 5 4 4 7 6 9 7 7 5 4 6 7
8 9 8 9 6 2 2 4 4 1 4 8 9 9 9 16 6 18 16 18 14 8 4 4 4 5 6 6 6 6 5 5 4 5 5 6 6 9 9 7 5 5 6
7 8 5 6 7 7 7 5 3 3 4 4 6 7 13 15 12 23 22 16 8 6 8 8 5 4 5 5 5 5 5 6 4 3 5 5 8 7 8 9 7 6 5
7 6 6 5 5 6 6 6 6 6 6 4 2 4 9 14 15 13 6 6 8 7 6 9 9 8 7 4 3 5 6 7 5 4 5 5 7 6 6 9 10 11 9
7 10 8 3 5 6 6 5 5 5 5 7 6 4 1 4 2 3 4 3 6 6 7 7 7 6 7 4 4 3 6 8 6 4 5 5 5 5 6 6 9 9 8
6 7 11 6 6 5 5 6 5 5 4 5 5 6 7 2 4 5 7 5 7 7 7 6 6 6 6 5 4 3 6 7 5 5 5 5 5 5 4 5 9 9 8
6 6 6 6 6 7 6 6 6 6 6 5 4 6 11 5 4 1 4 1 3 3 5 6 4 6 6 8 4 4 5 7 6 5 5 6 5 5 4 4 6 5 5
7 6 6 6 6 6 7 7 7 7 7 6 5 5 6 4 5 8 8 8 8 8 4 4 6 6 4 5 4 2 5 2 5 6 5 5 6 6 4 4 5 6 5
7 6 6 5 6 8 7 7 7 9 8 7 8 7 8 7 8 9 8 7 7 8 9 8 7 6 2 5 8 8 11 11 12 6 9 6 5 6 4 4 4 6 5
4 6 7 7 7 7 7 9 9 8 8 8 8 8 7 7 8 8 8 8 8 8 10 12 13 14 14 14 12 10 14 19 16 22 4 3 6 9 5 4 5 5 5
7 8 7 7 7 7 7 7 9 8 8 8 7 7 7 7 8 8 8 9 8 9 10 14 16 18 16 14 14 13 13 10 13 12 8 9 5 5 3 6 7 5 5
Wind_Direction
187 191 193 196 199 207 218 228 227 264 288 157 223 292 303 316 329 89 105 119 55 116 80 62 73 57 355 352 49 36 33 37 345 26 103 71 92 100 104 129 103 81 55
183 192 195 190 195 201 207 212 210 215 236 213 212 251 268 301 332 139 161 120 137 111 101 80 54 28 3 29 24 14 27 328 307 81 46 55 65 78 96 94 74 70 55
177 188 191 191 197 205 203 206 203 206 217 214 203 210 236 256 283 283 109 123 139 97 102 85 73 72 48 26 42 21 19 331 318 115 93 75 75 97 93 88 73 66 37
176 179 195 195 199 204 205 199 211 208 213 220 239 205 202 217 246 233 125 141 130 108 87 87 80 49 39 7 49 28 8 2 11 89 72 61 38 68 91 111 82 50 34
167 177 188 202 199 198 202 208 206 208 216 220 224 226 223 211 230 185 144 151 135 123 124 101 76 81 64 56 65 41 29 36 18 44 57 62 21 25 24 57 97 88 43
164 176 178 186 199 202 199 201 206 210 209 204 215 225 223 230 246 162 153 149 149 138 120 106 117 101 83 89 87 71 60 45 39 36 38 48 59 29 42 83 132 124 74
308 194 181 181 191 204 202 202 210 208 207 206 210 206 226 241 156 151 149 145 148 142 138 143 186 130 126 122 102 100 63 69 83 60 60 32 55 36 43 53 76 77 70
265 241 229 194 202 203 210 211 214 209 205 208 203 204 212 231 163 165 156 142 136 150 156 174 131 156 156 174 168 109 88 61 47 75 78 72 61 45 82 113 97 91 78
272 230 216 221 213 225 214 220 216 212 208 206 207 195 207 200 171 165 161 152 134 159 161 180 147 164 137 98 119 131 136 130 93 97 94 69 60 63 120 114 121 110 64
247 258 206 202 208 220 213 209 205 211 210 213 207 211 204 183 173 178 186 162 144 160 172 187 156 144 147 145 8 168 114 156 145 141 142 95 70 60 89 147 157 115 119
333 325 313 199 208 208 209 204 198 202 216 202 198 199 210 190 180 197 212 176 157 168 177 175 142 142 146 138 89 51 124 132 113 129 125 108 81 68 60 64 59 91 150
330 306 297 346 230 210 203 224 200 198 206 197 198 215 201 186 163 200 208 234 158 167 167 170 138 144 143 140 160 169 220 280 158 142 111 94 83 85 69 76 61 61 56
312 303 296 10 289 16 264 217 210 192 180 211 206 206 224 167 155 191 151 153 257 143 144 156 147 145 138 119 165 239 290 223 205 148 117 116 111 115 107 95 81 71 60
316 355 0 4 341 272 335 220 200 232 217 237 229 181 291 155 153 162 174 175 138 106 106 134 151 147 152 162 162 235 251 278 197 146 129 131 137 138 121 119 107 94 81
345 323 275 284 298 339 65 41 23 51 19 20 354 349 281 177 187 169 174 171 156 138 111 123 141 145 164 172 186 203 225 249 134 129 140 146 152 146 135 134 133 113 96
349 345 341 299 221 241 244 155 42 44 36 29 359 7 296 235 213 171 179 149 138 143 135 158 173 170 176 183 185 197 213 201 184 160 143 141 155 141 136 137 132 128 130
351 354 343 344 341 120 202 232 198 55 19 30 22 343 354 306 219 142 129 120 125 139 152 159 198 190 193 198 193 188 190 185 217 147 146 152 148 147 143 148 138 147 139
355 18 346 336 334 336 340 340 3 2 193 188 58 43 25 25 325 141 138 122 141 173 169 146 161 202 231 245 195 186 168 163 171 172 156 167 145 157 152 150 154 155 155
357 12 346 351 360 340 350 10 11 16 5 109 98 33 42 45 47 354 67 139 173 193 201 157 163 191 225 244 223 172 156 159 167 201 162 168 152 174 163 166 162 166 170
354 3 350 21 16 18 12 22 20 44 25 59 44 28 54 62 66 180 290 176 178 192 191 163 171 188 222 251 277 197 145 156 172 194 168 161 165 202 169 183 150 161 201
1 359 348 22 24 25 39 14 19 36 46 87 82 11 312 204 166 210 231 198 181 183 170 178 178 188 203 230 267 214 148 160 167 185 180 168 173 212 189 179 158 170 206
8 6 16 4 30 40 30 30 23 36 38 31 18 19 5 38 55 227 192 93 10 171 165 183 187 196 209 221 211 260 157 163 172 182 207 171 168 208 197 177 155 185 203
33 7 20 12 26 31 51 52 38 36 39 40 32 29 23 26 36 31 30 20 16 16 21 185 188 198 184 148 104 328 68 0 186 177 202 168 170 201 190 182 168 192 198
24 16 27 35 38 52 49 46 45 42 35 33 30 30 30 26 29 31 30 31 29 28 29 25 18 3 164 116 87 64 56 25 340 262 179 171 173 192 179 184 188 191 202
55 56 51 46 47 48 45 53 46 40 37 39 36 32 32 35 36 36 34 36 36 36 33 30 24 24 32 42 55 52 30 35 344 306 198 159 182 178 184 181 192 204 196
77 69 60 52 54 55 49 55 56 48 47 49 47 43 40 44 45 45 46 50 46 46 43 36 33 35 31 24 18 34 52 46 318 313 39 71 51 11 206 194 216 192 198